When you browse on this site, cookies collect data to enhance your experience and personalize the content and advertising you see.
Visit our Privacy Policy to learn more. By continuing to use the site, you agree to this use of cookies and data.
  • In Hungary
  • List of Countries
  • For 7 days
  • Water Temperature
  • Weather Map
  • News
  • Weather Widgets
  • user-avatar
    Login

    Hourly Weather Naumenka

    Today, 10 December, Tuesday

    Time Temperature Precipitation Wind Pressure Humidity
    00:00 +1°C° 0 mm 3 mps 739 mmHg 88%
    01:00 +2°C° 0 mm 2 mps 739 mmHg 88%
    02:00 +2°C° 0 mm 2 mps 740 mmHg 91%
    03:00 +2°C° 0 mm 2 mps 740 mmHg 90%
    04:00 +2°C° 0 mm 2 mps 740 mmHg 90%
    05:00 +1°C° 0 mm 2 mps 740 mmHg 90%
    06:00 +1°C° 0 mm 2 mps 740 mmHg 90%
    07:00 +2°C° 0 mm 1 mps 740 mmHg 90%
    08:00 +2°C° 0 mm 1 mps 740 mmHg 90%
    09:00 +2°C° 0 mm 2 mps 741 mmHg 86%
    10:00 +3°C° 0 mm 2 mps 741 mmHg 83%
    11:00 +4°C° 0 mm 2 mps 741 mmHg 79%
    12:00 +4°C° 0 mm 2 mps 741 mmHg 77%
    13:00 +5°C° 0 mm 2 mps 742 mmHg 75%
    14:00 +6°C° 0 mm 2 mps 742 mmHg 73%
    15:00 +5°C° 0 mm 2 mps 742 mmHg 77%
    16:00 +5°C° 0 mm 2 mps 742 mmHg 81%
    17:00 +4°C° 0 mm 2 mps 742 mmHg 85%
    18:00 +4°C° 0 mm 2 mps 743 mmHg 87%
    19:00 +4°C° 0 mm 2 mps 743 mmHg 88%
    20:00 +3°C° 0 mm 2 mps 744 mmHg 90%
    21:00 +3°C° 0 mm 2 mps 744 mmHg 92%
    22:00 +2°C° 0 mm 2 mps 744 mmHg 93%
    23:00 +1°C° 0 mm 3 mps 744 mmHg 94%

    Tomorrow, 11 December, Wednesday

    Time Temperature Precipitation Wind Pressure Humidity
    00:00 +2°C° 0 mm 2 mps 745 mmHg 94%
    01:00 +2°C° 0 mm 2 mps 745 mmHg 93%
    02:00 +2°C° 0 mm 2 mps 746 mmHg 92%
    03:00 +1°C° 0 mm 3 mps 746 mmHg 90%
    04:00 +1°C° 0 mm 3 mps 746 mmHg 87%
    05:00 +1°C° 0 mm 3 mps 746 mmHg 85%
    06:00 +1°C° 0 mm 2 mps 746 mmHg 86%
    07:00 +1°C° 0 mm 2 mps 746 mmHg 87%
    08:00 -1°C° 0 mm 2 mps 747 mmHg 89%
    09:00 +2°C° 0 mm 1 mps 747 mmHg 85%
    10:00 +2°C° 0 mm 1 mps 747 mmHg 81%
    11:00 +3°C° 0 mm 1 mps 747 mmHg 76%
    12:00 +3°C° 0 mm 1 mps 746 mmHg 80%
    13:00 +3°C° 0 mm 1 mps 746 mmHg 83%
    14:00 +2°C° 0 mm 0 mps 746 mmHg 86%
    15:00 +2°C° 0.2 mm 1 mps 746 mmHg 89%
    16:00 +2°C° 0.2 mm 1 mps 746 mmHg 93%
    17:00 +2°C° 0.2 mm 1 mps 746 mmHg 96%
    18:00 +2°C° 0.2 mm 1 mps 746 mmHg 96%
    19:00 +1°C° 0.2 mm 2 mps 746 mmHg 96%
    20:00 +1°C° 0.2 mm 2 mps 746 mmHg 96%
    21:00 +1°C° 0.5 mm 3 mps 745 mmHg 96%
    22:00 0°C° 0.5 mm 4 mps 745 mmHg 96%
    23:00 0°C° 0.5 mm 4 mps 745 mmHg 96%

    Day after tomorrow, 12 December, Thursday

    Time Temperature Precipitation Wind Pressure Humidity
    00:00 +1°C° 0.7 mm 4 mps 744 mmHg 96%
    01:00 +1°C° 0.7 mm 4 mps 744 mmHg 96%
    02:00 +1°C° 0.7 mm 5 mps 744 mmHg 95%
    03:00 +1°C° 0.2 mm 5 mps 743 mmHg 94%
    04:00 +2°C° 0.2 mm 5 mps 743 mmHg 92%
    05:00 +2°C° 0.2 mm 5 mps 743 mmHg 91%
    06:00 +2°C° 0 mm 5 mps 743 mmHg 90%
    07:00 +1°C° 0 mm 5 mps 743 mmHg 90%
    08:00 +1°C° 0 mm 5 mps 743 mmHg 89%
    09:00 +1°C° 0 mm 5 mps 743 mmHg 85%
    10:00 +2°C° 0 mm 5 mps 743 mmHg 81%
    11:00 +2°C° 0 mm 5 mps 743 mmHg 77%
    12:00 +2°C° 0 mm 5 mps 743 mmHg 77%
    13:00 +4°C° 0 mm 4 mps 742 mmHg 76%
    14:00 +4°C° 0 mm 4 mps 742 mmHg 76%
    15:00 +3°C° 0 mm 4 mps 742 mmHg 80%
    16:00 +1°C° 0 mm 4 mps 742 mmHg 84%
    17:00 +1°C° 0 mm 4 mps 741 mmHg 88%
    18:00 +1°C° 0 mm 4 mps 741 mmHg 88%
    19:00 0°C° 0 mm 5 mps 741 mmHg 89%
    20:00 0°C° 0 mm 5 mps 741 mmHg 89%
    21:00 0°C° 0 mm 5 mps 741 mmHg 89%
    22:00 0°C° 0 mm 5 mps 741 mmHg 89%
    23:00 0°C° 0 mm 5 mps 741 mmHg 88%

    13 December, Friday

    Time Temperature Precipitation Wind Pressure Humidity
    00:00 0°C° 0 mm 5 mps 740 mmHg 88%
    01:00 0°C° 0 mm 5 mps 740 mmHg 87%
    02:00 0°C° 0 mm 5 mps 740 mmHg 87%
    03:00 -1°C° 0 mm 5 mps 739 mmHg 88%
    04:00 -1°C° 0 mm 5 mps 739 mmHg 88%
    05:00 -2°C° 0 mm 6 mps 738 mmHg 89%
    06:00 -2°C° 0 mm 6 mps 738 mmHg 88%
    07:00 -2°C° 0 mm 6 mps 738 mmHg 88%
    08:00 -2°C° 0 mm 7 mps 738 mmHg 87%
    09:00 -2°C° 0 mm 7 mps 738 mmHg 87%
    10:00 -2°C° 0 mm 7 mps 738 mmHg 87%
    11:00 -2°C° 0 mm 7 mps 738 mmHg 87%
    12:00 -2°C° 0 mm 7 mps 737 mmHg 87%
    13:00 -2°C° 0 mm 7 mps 737 mmHg 86%
    14:00 -2°C° 0 mm 6 mps 737 mmHg 86%
    15:00 -2°C° 0 mm 6 mps 737 mmHg 85%
    16:00 -2°C° 0 mm 6 mps 737 mmHg 85%
    17:00 -2°C° 0 mm 6 mps 737 mmHg 85%
    18:00 -2°C° 0 mm 6 mps 737 mmHg 85%
    19:00 -2°C° 0 mm 6 mps 737 mmHg 85%
    20:00 -2°C° 0 mm 6 mps 737 mmHg 85%
    21:00 -2°C° 0 mm 6 mps 737 mmHg 85%
    22:00 -2°C° 0 mm 6 mps 737 mmHg 85%
    23:00 -2°C° 0 mm 6 mps 737 mmHg 85%

    14 December, Saturday

    Time Temperature Precipitation Wind Pressure Humidity
    00:00 -2°C° 0 mm 6 mps 737 mmHg 85%
    01:00 -1°C° 0 mm 6 mps 737 mmHg 85%
    02:00 -1°C° 0 mm 7 mps 737 mmHg 85%
    03:00 -1°C° 0 mm 6 mps 737 mmHg 84%
    04:00 -1°C° 0 mm 6 mps 737 mmHg 84%
    05:00 -1°C° 0 mm 6 mps 736 mmHg 84%
    06:00 -1°C° 0 mm 6 mps 737 mmHg 84%
    07:00 -1°C° 0 mm 6 mps 737 mmHg 85%
    08:00 0°C° 0 mm 5 mps 737 mmHg 85%
    09:00 -1°C° 0.2 mm 6 mps 737 mmHg 85%
    10:00 -1°C° 0.2 mm 6 mps 737 mmHg 85%
    11:00 +1°C° 0.2 mm 6 mps 738 mmHg 86%
    12:00 +1°C° 0 mm 6 mps 737 mmHg 85%
    13:00 +1°C° 0 mm 6 mps 737 mmHg 85%
    14:00 +2°C° 0 mm 6 mps 736 mmHg 85%
    15:00 +2°C° 0 mm 6 mps 736 mmHg 85%
    16:00 +2°C° 0 mm 6 mps 736 mmHg 86%
    17:00 +2°C° 0 mm 5 mps 737 mmHg 87%
    18:00 +2°C° 0 mm 6 mps 736 mmHg 87%
    19:00 +3°C° 0 mm 6 mps 736 mmHg 88%
    20:00 +3°C° 0 mm 6 mps 736 mmHg 89%
    21:00 +3°C° 0 mm 6 mps 736 mmHg 90%
    22:00 +4°C° 0 mm 6 mps 736 mmHg 92%
    23:00 +4°C° 0 mm 6 mps 736 mmHg 93%

    15 December, Sunday

    Time Temperature Precipitation Wind Pressure Humidity
    00:00 +5°C° 0.1 mm 5 mps 736 mmHg 93%
    01:00 +5°C° 0.1 mm 5 mps 736 mmHg 93%
    02:00 +6°C° 0.1 mm 4 mps 737 mmHg 93%
    03:00 +5°C° 0 mm 4 mps 737 mmHg 92%
    04:00 +4°C° 0 mm 4 mps 737 mmHg 91%
    05:00 +4°C° 0 mm 4 mps 737 mmHg 90%
    06:00 +3°C° 0 mm 4 mps 738 mmHg 88%
    07:00 +3°C° 0 mm 4 mps 738 mmHg 87%
    08:00 +3°C° 0 mm 4 mps 738 mmHg 85%
    09:00 +3°C° 0 mm 5 mps 739 mmHg 79%
    10:00 +4°C° 0 mm 6 mps 739 mmHg 74%
    11:00 +5°C° 0 mm 6 mps 740 mmHg 69%
    12:00 +5°C° 0 mm 6 mps 740 mmHg 67%
    13:00 +6°C° 0 mm 5 mps 740 mmHg 66%
    14:00 +6°C° 0 mm 5 mps 740 mmHg 65%
    15:00 +6°C° 0 mm 4 mps 741 mmHg 69%
    16:00 +5°C° 0 mm 4 mps 742 mmHg 72%
    17:00 +4°C° 0 mm 3 mps 742 mmHg 76%
    18:00 +4°C° 0 mm 3 mps 742 mmHg 77%
    19:00 +3°C° 0 mm 3 mps 742 mmHg 78%
    20:00 +3°C° 0 mm 3 mps 742 mmHg 79%
    21:00 +4°C° 0 mm 4 mps 742 mmHg 77%
    22:00 +3°C° 0 mm 5 mps 742 mmHg 74%
    23:00 +5°C° 0 mm 5 mps 742 mmHg 72%
    Show more